Time,TemperatureF,DewpointF,PressureIn,WindDirection,WindDirectionDegrees,WindSpeedMPH,WindSpeedGustMPH,Humidity,HourlyPrecipIn,Conditions,Clouds,dailyrainin,SoftwareType,DateUTC
2013-08-22 00:14:00,70.0,68.0,30.02,SSW,205,0.0,2.0,92,0.00,,,0.00,,2013-08-22 04:14:00,
2013-08-22 00:23:00,69.0,67.0,30.01,SSW,205,1.0,4.0,93,0.00,,,0.00,,2013-08-22 04:23:00,
2013-08-22 00:44:00,70.0,68.0,30.01,SW,218,0.0,5.0,92,0.00,,,0.00,,2013-08-22 04:44:00,
2013-08-22 00:54:00,69.0,67.0,30.01,SW,217,0.0,1.0,92,0.00,,,0.00,,2013-08-22 04:54:00,
2013-08-22 01:13:00,68.0,66.0,30.01,SSW,192,0.0,3.0,93,0.00,,,0.00,,2013-08-22 05:13:00,
2013-08-22 01:22:00,68.0,66.0,30.01,SSW,192,0.0,1.0,94,0.00,,,0.00,,2013-08-22 05:22:00,
2013-08-22 01:43:00,68.0,66.0,30.02,SSW,192,0.0,2.0,94,0.00,,,0.00,,2013-08-22 05:43:00,
2013-08-22 01:52:00,68.0,66.0,30.02,SSW,192,0.0,2.0,94,0.00,,,0.00,,2013-08-22 05:52:00,
2013-08-22 02:12:00,68.0,66.0,30.02,South,191,2.0,5.0,94,0.00,,,0.00,,2013-08-22 06:12:00,
2013-08-22 02:22:00,68.0,66.0,30.02,South,191,2.0,5.0,94,0.00,,,0.00,,2013-08-22 06:22:00,
2013-08-22 02:42:00,68.0,66.0,30.02,SSW,207,1.0,3.0,94,0.00,,,0.00,,2013-08-22 06:42:00,
2013-08-22 02:52:00,68.0,66.0,30.02,SSW,207,0.0,2.0,94,0.00,,,0.00,,2013-08-22 06:52:00,
2013-08-22 03:12:00,68.0,66.0,30.02,SSW,207,0.0,0.0,93,0.00,,,0.00,,2013-08-22 07:12:00,
2013-08-22 03:22:00,68.0,66.0,30.03,SSW,207,0.0,1.0,93,0.00,,,0.00,,2013-08-22 07:22:00,
2013-08-22 03:42:00,68.0,66.0,30.03,SSW,207,0.0,2.0,94,0.00,,,0.00,,2013-08-22 07:42:00,
2013-08-22 03:52:00,68.0,66.0,30.03,SSW,207,0.0,0.0,94,0.00,,,0.00,,2013-08-22 07:52:00,
2013-08-22 04:12:00,68.0,66.0,30.03,WSW,248,0.0,2.0,94,0.00,,,0.00,,2013-08-22 08:12:00,
2013-08-22 04:22:00,69.0,67.0,30.03,WSW,248,0.0,1.0,93,0.00,,,0.00,,2013-08-22 08:22:00,
2013-08-22 04:43:00,68.0,66.0,30.03,WSW,248,0.0,0.0,93,0.00,,,0.00,,2013-08-22 08:43:00,
2013-08-22 04:53:00,68.0,66.0,30.02,SSW,213,0.0,3.0,93,0.00,,,0.00,,2013-08-22 08:53:00,
2013-08-22 05:11:00,69.0,67.0,30.01,SSW,213,0.0,1.0,93,0.00,,,0.00,,2013-08-22 09:11:00,
2013-08-22 05:22:00,69.0,67.0,30.01,SSW,213,0.0,1.0,93,0.00,,,0.00,,2013-08-22 09:22:00,
2013-08-22 05:43:00,69.0,67.0,30.00,SSW,207,1.0,3.0,93,0.00,,,0.00,,2013-08-22 09:43:00,
2013-08-22 05:53:00,69.0,67.0,29.97,SSW,213,3.0,7.0,93,0.00,,,0.00,,2013-08-22 09:53:00,
2013-08-22 06:12:00,69.0,67.0,29.97,SSW,208,3.0,9.0,93,0.00,,,0.00,,2013-08-22 10:12:00,
2013-08-22 06:20:00,68.0,66.0,29.97,SW,221,1.0,3.0,93,0.00,,,0.00,,2013-08-22 10:20:00,
2013-08-22 06:23:00,69.0,67.0,29.96,SSW,196,0.0,5.0,93,0.00,,,0.00,,2013-08-22 10:23:00,
2013-08-22 06:42:00,68.0,66.0,29.97,SW,219,0.0,5.0,94,0.00,,,0.00,,2013-08-22 10:42:00,
2013-08-22 08:42:00,69.0,67.0,30.02,WSW,249,0.0,2.0,94,0.00,,,0.00,,2013-08-22 12:42:00,
2013-08-22 08:52:00,70.0,68.0,30.02,WSW,249,0.0,2.0,94,0.00,,,0.00,,2013-08-22 12:52:00,
2013-08-22 09:12:00,70.0,68.0,30.02,WSW,249,1.0,3.0,93,0.00,,,0.00,,2013-08-22 13:12:00,
2013-08-22 09:22:00,71.0,69.0,30.02,WSW,246,0.0,3.0,93,0.00,,,0.00,,2013-08-22 13:22:00,
2013-08-22 09:52:00,72.0,69.0,30.01,WSW,258,2.0,6.0,91,0.00,,,0.00,,2013-08-22 13:52:00,
2013-08-22 10:11:00,74.0,70.0,30.01,WSW,252,4.0,8.0,88,0.00,,,0.00,,2013-08-22 14:11:00,
2013-08-22 10:22:00,74.0,70.0,30.02,WSW,239,3.0,10.0,87,0.00,,,0.00,,2013-08-22 14:22:00,
2013-08-22 10:52:00,76.0,70.0,30.01,West,271,3.0,10.0,83,0.00,,,0.00,,2013-08-22 14:52:00,
2013-08-22 11:12:00,76.0,70.0,30.02,WNW,282,4.0,9.0,83,0.00,,,0.00,,2013-08-22 15:12:00,
2013-08-22 11:22:00,77.0,71.0,30.02,West,275,4.0,9.0,82,0.00,,,0.00,,2013-08-22 15:22:00,
2013-08-22 11:43:00,77.0,71.0,30.02,West,267,4.0,9.0,82,0.00,,,0.00,,2013-08-22 15:43:00,
2013-08-22 11:54:00,77.0,70.0,30.03,WSW,257,3.0,9.0,80,0.00,,,0.00,,2013-08-22 15:54:00,
2013-08-22 12:14:00,76.0,70.0,30.03,WSW,257,1.0,5.0,82,0.00,,,0.00,,2013-08-22 16:14:00,
2013-08-22 12:25:00,76.0,70.0,30.03,SW,223,4.0,8.0,82,0.00,,,0.00,,2013-08-22 16:25:00,
2013-08-22 12:43:00,78.0,71.0,30.03,SW,234,5.0,10.0,79,0.00,,,0.00,,2013-08-22 16:43:00,
2013-08-22 12:54:00,79.0,72.0,30.03,SW,229,3.0,10.0,78,0.00,,,0.00,,2013-08-22 16:54:00,
2013-08-22 13:12:00,80.0,72.0,30.03,WNW,285,5.0,9.0,77,0.00,,,0.00,,2013-08-22 17:12:00,
2013-08-22 13:24:00,79.0,71.0,30.03,WSW,251,5.0,11.0,77,0.00,,,0.00,,2013-08-22 17:24:00,
2013-08-22 13:43:00,78.0,71.0,30.03,West,268,6.0,11.0,79,0.00,,,0.00,,2013-08-22 17:43:00,
2013-08-22 13:53:00,77.0,71.0,30.03,West,273,7.0,13.0,81,0.00,,,0.00,,2013-08-22 17:53:00,
2013-08-22 14:12:00,76.0,70.0,30.04,WSW,257,6.0,14.0,82,0.00,,,0.00,,2013-08-22 18:12:00,
2013-08-22 14:22:00,76.0,70.0,30.04,West,279,7.0,12.0,83,0.00,,,0.00,,2013-08-22 18:22:00,
2013-08-22 14:43:00,76.0,71.0,30.04,West,271,5.0,9.0,85,0.00,,,0.00,,2013-08-22 18:43:00,
2013-08-22 14:52:00,73.0,70.0,30.03,WSW,251,3.0,14.0,90,0.19,,,0.19,,2013-08-22 18:52:00,
2013-08-22 15:11:00,73.0,71.0,30.03,WSW,256,1.0,4.0,94,0.24,,,0.24,,2013-08-22 19:11:00,
2013-08-22 15:22:00,75.0,73.0,30.03,SW,229,2.0,7.0,92,0.24,,,0.24,,2013-08-22 19:22:00,
2013-08-22 15:42:00,76.0,72.0,30.02,WNW,283,4.0,8.0,88,0.24,,,0.24,,2013-08-22 19:42:00,
2013-08-22 15:53:00,76.0,72.0,30.02,WNW,294,6.0,10.0,87,0.04,,,0.24,,2013-08-22 19:53:00,
2013-08-22 16:12:00,76.0,72.0,30.01,WSW,252,6.0,11.0,88,0.00,,,0.24,,2013-08-22 20:12:00,
2013-08-22 16:23:00,76.0,72.0,30.01,WNW,292,10.0,18.0,87,0.00,,,0.24,,2013-08-22 20:23:00,
2013-08-22 16:42:00,75.0,70.0,30.01,WNW,288,13.0,19.0,85,0.00,,,0.24,,2013-08-22 20:42:00,
2013-08-22 16:52:00,74.0,70.0,30.01,NW,315,7.0,18.0,87,0.00,,,0.24,,2013-08-22 20:52:00,
2013-08-22 17:13:00,73.0,69.0,30.02,WNW,300,10.0,16.0,86,0.00,,,0.24,,2013-08-22 21:13:00,
2013-08-22 17:22:00,72.0,68.0,30.02,WNW,300,7.0,15.0,88,0.00,,,0.24,,2013-08-22 21:22:00,
2013-08-22 17:44:00,72.0,68.0,30.02,West,266,6.0,11.0,88,0.00,,,0.24,,2013-08-22 21:44:00,
2013-08-22 17:54:00,71.0,68.0,30.02,WNW,301,4.0,9.0,90,0.00,,,0.24,,2013-08-22 21:54:00,
2013-08-22 18:13:00,71.0,68.0,30.01,NNW,327,3.0,8.0,90,0.00,,,0.24,,2013-08-22 22:13:00,
2013-08-22 18:25:00,71.0,68.0,30.01,NNE,31,2.0,7.0,90,0.00,,,0.24,,2013-08-22 22:25:00,
2013-08-22 18:42:00,71.0,68.0,30.01,NNW,329,3.0,7.0,89,0.00,,,0.24,,2013-08-22 22:42:00,
2013-08-22 18:53:00,71.0,68.0,29.99,NW,321,1.0,6.0,90,0.00,,,0.24,,2013-08-22 22:53:00,
2013-08-22 19:12:00,71.0,68.0,30.00,NW,319,0.0,2.0,91,0.00,,,0.24,,2013-08-22 23:12:00,
2013-08-22 19:23:00,71.0,68.0,30.00,NW,319,0.0,2.0,91,0.00,,,0.24,,2013-08-22 23:23:00,
2013-08-22 19:42:00,70.0,68.0,29.99,NW,319,0.0,1.0,92,0.00,,,0.24,,2013-08-22 23:42:00,
2013-08-22 19:52:00,70.0,68.0,29.98,NW,319,0.0,1.0,92,0.00,,,0.24,,2013-08-22 23:52:00,
2013-08-22 20:12:00,70.0,68.0,29.98,NW,319,0.0,2.0,92,0.00,,,0.24,,2013-08-23 00:12:00,
2013-08-22 20:23:00,70.0,67.0,29.96,NW,319,0.0,0.0,91,0.00,,,0.24,,2013-08-23 00:23:00,
2013-08-22 20:42:00,70.0,67.0,29.97,NW,319,0.0,0.0,91,0.00,,,0.24,,2013-08-23 00:42:00,
2013-08-22 20:52:00,70.0,67.0,29.97,NW,319,1.0,3.0,91,0.00,,,0.24,,2013-08-23 00:52:00,
2013-08-22 21:11:00,69.0,66.0,29.97,NW,319,0.0,2.0,91,0.00,,,0.24,,2013-08-23 01:11:00,
2013-08-22 21:22:00,68.0,66.0,29.97,NW,319,0.0,3.0,92,0.00,,,0.24,,2013-08-23 01:22:00,
2013-08-22 21:42:00,68.0,66.0,29.98,NW,317,0.0,3.0,93,0.00,,,0.24,,2013-08-23 01:42:00,
2013-08-22 21:52:00,68.0,66.0,29.98,West,276,1.0,3.0,93,0.00,,,0.24,,2013-08-23 01:52:00,
2013-08-22 22:11:00,67.0,65.0,29.99,West,277,2.0,3.0,94,0.00,,,0.24,,2013-08-23 02:11:00,
2013-08-22 22:23:00,67.0,66.0,30.00,WNW,285,2.0,5.0,95,0.00,,,0.24,,2013-08-23 02:23:00,
2013-08-22 22:43:00,67.0,66.0,30.01,NW,319,2.0,5.0,95,0.00,,,0.24,,2013-08-23 02:43:00,
2013-08-22 22:52:00,68.0,67.0,30.01,WNW,288,4.0,7.0,95,0.00,,,0.24,,2013-08-23 02:52:00,
2013-08-22 23:12:00,68.0,67.0,30.02,WNW,286,3.0,6.0,95,0.00,,,0.24,,2013-08-23 03:12:00,
2013-08-22 23:23:00,68.0,67.0,30.02,West,277,2.0,6.0,95,0.00,,,0.24,,2013-08-23 03:23:00,
2013-08-22 23:55:00,68.0,67.0,30.03,WNW,301,0.0,3.0,95,0.00,,,0.24,,2013-08-23 03:55:00,